CZ-3B DEB, 42474

Orbit data source: Space-Track

CZ-3B DEB, 42474 is space debris in HEO originally from a launch on Mon, 19 Dec 2011 UTC launched from the Xichang Space Center, China (XSC). Debris objects in space refer to the collection of defunct objects orbiting the Earth. Examples of debris include non-operational satellites, rocket bodies, and fragments generated from explosions, collisions, or faulty payload assembly.

Loading next visibility...
Identifier
42474, 2011-077AP
Orbit
HEO
Country
Flag of CNCN / PRC
Related business
Manufacturer
CALT
Mission
Spacecraft
Bus & Motor
Unknown
Mass
Unknown
Launch date (UTC)
2011-12-19 (14 years ago)
Launch vehicle
Unknown
Launch site
Xichang Space Center, China (XSC)
Object type
Payload
Rocket body
Debris
Shape & HBR
Unknown shape, 0.2 m
Radar Cross Section
Medium (>0.1 m² and <1 m²)

Expand to show TLE details & history
Last TLE update: 1 week ago

TLE from 1 week ago
0 CZ-3B DEB
1 42474U 11077AP  25302.56183808  .00000028  00000-0  00000-0 0  9998
2 42474  22.0686 128.7366 7174317   1.3540 359.9307  1.66957421 64998
Epoch: 2025-10-29T13:29Z
TLE epoch observation values (Epoch: 2025-10-29T13:29:02.810Z)
Latitude
0.00007°
Longitude
-111.64975°
Altitude
2,133.894 km
Speed
8.965 km/s
True Right ascension
08h 34m 58s
True Declination
0° 00' 00"
Sunlit
Object was in daylight at epoch
Visualization orbit readout
Latitude
Unknown
Longitude
Unknown
Altitude
Unknown
Speed
Unknown
Apparent Right ascension
Unknown
Apparent Declination
Unknown
Sunlit
N/A
Visualization observer readout
Local Sidereal Time
05:07:53
Azimuth
Unknown
Elevation
Unknown
Doppler factor
Unknown
Orbital elements
Apogee altitude
45,175.654 km
Perigee altitude
2,103.986 km
Semi-major axis
30,017.957 km
Eccentricity
0.71743
Inclination
22.0686°
RAAN
128.7366°
Arg. of periapsis
1.354°
True anomaly
359.39538°
Mean anomaly
359.9307°
Eccentric anomaly
359.75475°
Mean motion
0.41732 °/min
Orbital period
862.64 mins
BSTAR
0
Loading maneuver chart data...
Computing Atmospheric mass density...
Loading historical data...
Loading historical data...
Loading historical data...
Loading historical data...
Loading historical data...
Loading historical data...
Loading historical data...

Documentation

Showing up to 5 results
|